This demonstration page uses our WeatherBlox Daily Observations layout. Learn more.

Left ArrowRight Arrow

41.86663, -103.66717

Hourly Observations for December 27, 2020

Temp ( °F °C ) Dew Point ( °F °C ) Humidity (%) Winds ( mph kmh ) Pressure ( in mb ) Visibility ( mi km ) Precip ( " mm )
12:53 am 00:53 Mostly Cloudy 39 3.9 24 -4.4 55 55 WNW 13 20 29.75 1007 10 16 0.00 0.00
1:53 am 01:53 Cloudy 39 3.9 26 -3.3 60 60 NW 14 22 29.78 1008 10 16 0.00 0.00
2:40 am 02:40 Cloudy with Light Snow 36 2 30 -1 81 81 NW 16 26 29.91 1013 6 10 0.00 0.00
2:53 am 02:53 Cloudy with Light Rain 36 2.2 33 0.6 89 89 NW 16 26 29.83 1010 10 16 0.01 0.25
3:08 am 03:08 Cloudy with Light Snow 35 1.7 35 1.7 100 100 NW 16 26 29.92 1013 7 11 0.01 0.25
3:21 am 03:21 Cloudy with Light Snow 34 1 N/A N/A WNW 15 24 29.94 1014 6 10 0.02 0.51
3:53 am 03:53 Cloudy with Light Rain 36 2 N/A N/A WNW 13 20 29.85 1011 10 16 0.03 0.76
4:53 am 04:53 Mostly Cloudy 36 2 N/A N/A WNW 10 17 29.88 1012 10 16 0.00 0.00
5:53 am 05:53 Cloudy 36 2 N/A N/A WNW 12 19 29.89 1012 10 16 0.00 0.00
6:53 am 06:53 Clear 32 0 N/A N/A NW 9 15 29.92 1013 10 16 0.00 0.00
7:53 am 07:53 Sunny 32 0 N/A N/A NW 10 17 29.96 1015 10 16 0.00 0.00
8:53 am 08:53 Partly Cloudy 35 1.7 33 0.6 93 93 WNW 8 13 29.98 1015 10 16 0.00 0.00
9:53 am 09:53 Mostly Cloudy 37 2.8 30 -1.1 76 76 WNW 9 15 30.01 1016 10 16 0.00 0.00
10:53 am 10:53 Cloudy 40 4.4 31 -0.6 70 70 WNW 12 19 30.00 1016 10 16 0.00 0.00
11:53 am 11:53 Partly Cloudy 40 4.4 29 -1.7 65 65 NW 14 22 30.00 1016 10 16 0.00 0.00
12:53 pm 12:53 Mostly Cloudy 42 5.6 28 -2.2 58 58 NW 14 22 30.00 1016 10 16 0.00 0.00
1:53 pm 13:53 Mostly Cloudy 41 5 27 -2.8 57 57 NW 10 17 29.99 1016 10 16 0.00 0.00
2:53 pm 14:53 Cloudy 41 5 27 -2.8 57 57 NNW 13 20 30.00 1016 10 16 0.00 0.00
3:53 pm 15:53 Mostly Cloudy 38 3.3 27 -2.8 65 65 NNW 10 17 30.04 1017 10 16 0.00 0.00
4:53 pm 16:53 Cloudy 36 2.2 28 -2.2 73 73 NW 6 9 30.07 1018 10 16 0.00 0.00
5:53 pm 17:53 Cloudy with Light Snow 35 1.7 30 -1.1 82 82 NW 10 17 30.10 1019 7 11 0.00 0.00
6:53 pm 18:53 Cloudy 33 0.6 28 -2.2 82 82 NW 3 6 30.15 1021 10 16 0.00 0.00
7:53 pm 19:53 Cloudy 32 0 28 -2.2 85 85 W 6 9 30.18 1022 9 14 0.00 0.00
8:53 pm 20:53 Cloudy 30 -1.1 27 -2.8 88 88 W 6 9 30.19 1022 10 16 0.00 0.00
9:53 pm 21:53 Clear 26 -3.3 23 -5 88 88 NNW 5 7 30.22 1023 10 16 0.00 0.00
10:12 pm 22:12 Mostly Cloudy 28 -2.2 24 -4.4 85 85 Calm 30.30 1026 10 16 0.00 0.00
10:28 pm 22:28 Partly Cloudy 27 -3 23 -5 86 86 N 3 6 30.31 1026 10 16 0.00 0.00
10:44 pm 22:44 Partly Cloudy 25 -3.9 22 -5.6 88 88 N 3 6 30.34 1027 10 16 0.00 0.00
10:53 pm 22:53 Mostly Cloudy 25 -3.9 22 -5.6 88 88 Calm 30.23 1024 10 16 0.00 0.00
11:03 pm 23:03 Mostly Cloudy 27 -2.8 23 -5 85 85 Calm 30.32 1027 10 16 0.00 0.00
11:17 pm 23:17 Mostly Cloudy with Mist and Fog 26 -3.3 24 -4.4 92 92 Calm 30.33 1027 2 3 0.00 0.00
11:26 pm 23:26 Mostly Cloudy with Mist and Fog 25 -3.9 23 -5 92 92 W 3 6 30.35 1028 1 1 0.00 0.00
11:47 pm 23:47 Cloudy with Mist and Fog 27 -3 25 -4 93 93 NNW 7 11 30.33 1027 2 3 0.00 0.00
11:53 pm 23:53 Cloudy with Mist and Fog 27 -2.8 24 -4.4 89 89 NNW 6 9 30.23 1024 4 6 0.00 0.00
11:58 pm 23:58 Cloudy 27 -3 25 -4 93 93 NNW 7 11 30.33 1027 7 11 0.00 0.00

Powered by AerisWeather